Flag for France Weather past 2 weeks in Le Havre, France

Now
48 °F

Broken clouds.


Feels Like: 41 °F
Forecast: 42 / 44 °F
Wind: 23 mph from West

Location: La Heve

Current Time: Jan 28, 2015 at 3:25:56 PM

Latest Report: Jan 28, 2015 at 3:00 PM


Visibility: N/A

Pressure: 29.71 "Hg

Humidity: 87%

Dew point: 45 °F

Location of Le HavreLocation

Historic Weather in Le Havre — Graph

°F

Le Havre temperature yesterday

Maximum temperature yesterday: 46 °F (at 12:30 PM)
Minimum temperature yesterday: 43 °F (at 3:30 AM)
Average temperature yesterday: 45 °F

Past Weeks' High & Low Weather Summary

 TemperatureHumidityPressure
High52 °F (Jan 15, 4:00 AM)100% (Jan 24, 5:00 AM)30.51 "Hg (Jan 24, 5:00 AM)
Low28 °F (Jan 22, 3:30 AM)48% (Jan 20, 4:00 PM)29.36 "Hg (Jan 15, 7:30 AM)
Average41 °F80%30.00 "Hg
* Reported Jan 13 2:00 PM — Jan 28 2:30 PM, Le Havre, Weather by CustomWeather, © 2014

Note: Actual official high and low records may vary slightly from our data, if they occured in-between our weather recording intervals... More about our weather records

Advertising

Le Havre weather history for previous 24 hours

 ConditionsComfort  
Time TempWeatherWind HumidityBarometerVisibility
2:30 PM
Jan 28
48 °FPartly sunny.24 mph94%29.71 "HgN/A
2:00 PM48 °FLight rain. Mostly cloudy.26 mph94%29.74 "HgN/A
1:30 PM48 °FDrizzle. Fog.23 mph94%29.74 "Hg2 mi
1:00 PM48 °FDrizzle. Fog.21 mph87%29.74 "Hg1 mi
12:30 PM46 °FLow clouds.20 mph93%29.77 "Hg4 mi
12:00 PM46 °FLow clouds.20 mph87%29.80 "HgN/A
11:30 AM45 °FLow clouds.21 mph93%29.83 "HgN/A
11:00 AM45 °FLow clouds.21 mph93%29.83 "HgN/A
10:30 AM45 °FLow clouds.21 mph93%29.86 "HgN/A
10:00 AM45 °FOvercast.18 mph87%29.89 "HgN/A
9:30 AM45 °FLight rain. Fog.17 mph81%29.92 "Hg3 mi
9:00 AM45 °FOvercast.17 mph81%29.92 "HgN/A
8:30 AM45 °FMostly cloudy.16 mph81%29.95 "HgN/A
8:00 AM45 °FOvercast.17 mph76%29.98 "HgN/A
7:30 AM45 °FOvercast.16 mph76%29.98 "HgN/A
7:00 AM43 °FMostly cloudy.17 mph87%30.01 "HgN/A
6:30 AM45 °FMostly cloudy.15 mph81%30.04 "HgN/A
6:00 AM45 °FOvercast.15 mph81%30.07 "HgN/A
5:30 AM45 °FMostly cloudy.14 mph87%30.07 "HgN/A
5:00 AM43 °FLow clouds.14 mph93%30.09 "HgN/A
4:30 AM43 °FPassing clouds.15 mph93%30.09 "HgN/A
4:00 AM43 °FMostly cloudy.15 mph93%30.12 "HgN/A
3:30 AM43 °FLow clouds.15 mph93%30.12 "HgN/A
3:00 AM43 °FPartly cloudy.15 mph93%30.15 "HgN/A
2:30 AM43 °FMostly cloudy.14 mph93%30.15 "HgN/A
2:00 AM43 °FPassing clouds.14 mph87%30.18 "HgN/A
1:30 AM43 °FPassing clouds.13 mph87%30.18 "HgN/A
1:00 AM45 °FOvercast.13 mph81%30.21 "HgN/A
12:30 AM45 °FMostly cloudy.14 mph81%30.21 "HgN/A
12:00 AM45 °FMostly cloudy.12 mph81%30.24 "HgN/A
11:30 PM
Jan 27
45 °FOvercast.13 mph81%30.27 "HgN/A
11:00 PM45 °FOvercast.12 mph81%30.27 "HgN/A
10:30 PM45 °FOvercast.10 mph81%30.27 "HgN/A
10:00 PM45 °FMostly cloudy.12 mph81%30.27 "HgN/A
9:30 PM45 °FOvercast.13 mph87%30.30 "HgN/A
9:00 PM45 °FOvercast.10 mph81%30.30 "HgN/A
8:30 PM45 °FMostly cloudy.9 mph81%30.30 "HgN/A
8:00 PM46 °FOvercast.12 mph76%30.30 "HgN/A
7:30 PM45 °FOvercast.9 mph81%30.30 "HgN/A
7:00 PM45 °FOvercast.10 mph81%30.30 "HgN/A
6:30 PM45 °FPassing clouds.9 mph81%30.30 "HgN/A
6:00 PM45 °FMostly cloudy.12 mph81%30.30 "HgN/A
5:30 PM46 °FMostly cloudy.9 mph76%30.30 "HgN/A
5:00 PM45 °FPartly sunny.9 mph81%30.33 "HgN/A
4:30 PM46 °FOvercast.8 mph76%30.33 "HgN/A
4:00 PM46 °FPartly sunny.8 mph76%30.33 "HgN/A
3:30 PM46 °FMore clouds than sun.8 mph76%30.33 "HgN/A
3:00 PM46 °FMore clouds than sun.10 mph76%30.33 "HgN/A
Weather by CustomWeather, © 2014

See weather overviewHow to use our weather pages